www.pogodaiklimat.ru
ПОГОДА в Ла-Эсперансе

Архив погоды в Ла-Эсперансе (Гондурас)

Время
(UTC), дата
15 15.07
18 15.07
21 15.07
00 16.07
12 16.07
15 16.07
18 16.07
21 16.07
00 17.07
12 17.07
15 17.07
18 17.07
21 17.07
00 18.07
12 18.07
15 18.07
18 18.07
21 18.07
00 19.07
12 19.07
15 19.07
18 19.07
21 19.07
00 20.07
12 20.07
15 20.07
18 20.07
21 20.07
00 21.07
12 21.07
15 21.07
18 21.07
21 21.07
00 22.07
12 22.07
Ветер
(напр.,м/с)
Видим. Явления Облачность Т
(С)
Тd
(С)
f
(%)
Тe
(С)
Тes
(С)
Комфортность P
(гПа)
Po
(гПа)
Тmin
(С)
Tmax
(С)
R
(мм)
R24
(мм)
S
(см)
СВ 3 20 км 6/1 600 м
[Cu hum Cs]
+21.4 +15.7 73 +25 +33 комфорт 1012.7 837.6
В 3 20 км 5/5 600 м
[Cu hum Ci fib]
+22.6 +14.5 60 +26 +35 жарко 1012.4 837.3 +17.2 +22.8
СВ 3 20 км 4/4 600 м
[Cb cap Ac cuf Ci ing]
+23.6 +15.3 57 +27 +31 жарко 1010.5 836.3
СВ 2 20 км 8/6 600 м
[Cb cap Ac cuf Ci ing]
+20.6 +17.9 83 +26 +26 душно 1011.6 836.1
штиль 0 10 км 1/1 540 м
[Sc diur, vesp Ac lent Ci fib]
+14.6 +14.3 94 +15 +15 1012.9 836.7 +13.6 +24.5
СВ 3 20 км 1/1 600 м
[Cu hum Cc]
+20.4 +14.8 73 +23 +31 комфорт 1012.8 837.1
СВ 3 20 км 1/1 600 м
[Cu hum Ci fib]
+24.2 +13.6 54 +26 +41 жарко 1010.9 836.7 +13.6 +24.2
В 3 20 км 5/5 600 м
[Cb cap Ci ing]
+24.2 +13.6 54 +26 +31 жарко 1011.2 836.3
штиль 0 20 км 4/3 600 м
[Cb cap Ci ing]
+20.6 +15.9 73 +24 +24 комфорт 1012.7 836.5 +13.6 +25.0
СВ 2 10 км 9/9 300 м
[Sc diur, vesp Ci fib]
+16.4 +15.8 100 +16 +16 1012.4 836.9 +14.5 +25.0
СВ 3 20 км 1/1 660 м
[Cu hum Ci fib]
+21.8 +13.7 60 +25 +33 комфорт 1012.8 837.1
СВ 4 20 км 3/1 720 м
[Cu hum Ci fib]
+23.8 +12.0 47 +26 +37 жарко 1011.6 837.2 +14.5 +23.8
СВ 3 20 км 4/3 720 м
[Cu hum Ci fib]
+24.0 +12.8 50 +26 +33 жарко 1011.5 836.6
СВ 2 20 км 3/1 720 м
[Cu hum Ci fib]
+22.0 +17.0 73 +26 +26 душно 1012.3 836.8 +14.5 +25.0
штиль 0 8000 м дымка 8/8 300 м
[Sc diur, vesp Ac trans Ci fib]
+17.2 +17.2 100 +17 +17 1012.7 837.2 +15.5 +25.0 0.2
С 3 20 км {туман} 8/8 600 м
[Cu hum Ci fib]
+20.4 +16.6 83 +23 +25 комфорт 1013.3 838.3
СВ 2 8000 м осадки на расстоянии {туман} 8/8 600 м
[Cu med, cong Ci fib]
+20.2 +17.6 88 +24 +28 комфорт 1013.9 838.1 +15.8 +21.8
СВ 2 20 км {морось} 4/4 600 м
[Cu med, cong Ci fib]
+24.4 +16.7 65 +28 +33 душно 1010.8 836.9
СВ 2 20 км 4/4 600 м
[Cb cap Ci fib]
+22.0 +17.0 73 +26 +26 душно 1010.8 836.9 +15.8 +24.5 0.5
С 2 20 км {морось} 4/4 600 м
[Sc diur, vesp Ci fib]
+17.0 +15.8 94 +17 +17 1012.8 837.0 +16.0 +24.5 0.5
В 2 20 км 9/4 720 м
[Cu hum Cs]
+21.6 +17.3 73 +26 +32 душно 1012.0 837.1
СВ 2 20 км 6/4 720 м
[Cu med, cong Cs]
+29.0 +17.0 48 +33 +44 очень душно 1012.6 838.0 +16.0 +23.8
СВ 2 20 км 8/8 660 м
[Cb cap Ci fib]
+23.8 +17.3 65 +28 +33 душно 1009.6 835.8
СВ 2 20 км в посл. час гроза {дождь, морось} 9/6 660 м
[Cb cap Cs]
+19.2 +17.8 94 +21 +21 комфорт 1010.9 835.6 +16.0 +25.0 10
штиль 0 8000 м дымка 8/1 300 м
[Sc diur, vesp Ac trans Ci fib]
+15.6 +15.3 94 +16 +16 1012.8 836.5 +15.2 +25.2 1 11.4
С 2 20 км {туман} 8/8 600 м
[Cu hum Ci fib]
+20.0 +16.8 83 +23 +26 комфорт 1013.9 838.3
В 2 20 км {туман} 8/8 600 м
[Cu med, cong Ac trans Ci fib]
+22.6 +16.6 69 +28 +32 душно 1013.9 838.0 +15.2 +22.6
СВ 2 20 км гроза без осадков {морось} 6/4 600 м
[Cb cap As op Ci fib]
+20.0 +16.8 83 +23 +28 комфорт 1013.3 837.1
штиль 0 20 км {гроза, дождь} 9/5 600 м
[Cb cap Cs]
+19.8 +17.5 88 +23 +23 комфорт 1012.1 836.4 +15.2 +24.0
штиль 0 10 км 9/9 540 м
[Sc diur, vesp Ci fib]
+17.2 +16.9 100 +17 +17 1011.5 836.0 +16.2 +24.0 1 1.7
СВ 3 8000 м 9/9 300 м
[Sc diur, vesp]
+18.6 +16.9 88 +21 +23 комфорт 1013.0 836.8
СВ 2 10 км осадки на расстоянии 9/9 600 м
[Cu hum Ci fib]
+21.0 +17.4 78 +26 +30 душно 1012.2 836.7 +16.2 +22.4
СВ 3 20 км 6/5 600 м
[Cb cap Ci ing]
+22.6 +17.9 73 +28 +33 душно 1009.7 835.0
СВ 2 10 км гроза, ливневой дождь 9/8 300 м
[Cb cap Ac cuf Ci ing]
+18.4 +18.1 100 +19 +19 1011.7 835.7 +16.2 +23.4
штиль 0 10 км {гроза} 6/6 300 м
[Sc diur, vesp Ac trans Ci fib]
+16.2 +15.9 100 +16 +16 1012.0 835.4 +14.0 +23.4 0.3 2.9
Местоположение метеостанции Ла-Эсперанса (Гондурас): широта 14.32 долгота -88.16 высота над уровнем моря 1674 м.
В архиве по умолчанию представлена погода в Ла-Эсперансе за последнюю неделю. Архивные данные за месяц целиком и за предыдущие месяцы, начиная с января 2011 года, Вы можете получить, выбрав интересующий диапазон дат из раскрывающегося списка и нажав кнопку "Найти!".
*Определитесь, кто Вы:
Внимание! Время в таблицах - всемирное. Для получения местного времени необходимо прибавить поправку, которая равна -6 ч.
Некоторые строки с данными для отдельных станций могут быть выделены курсивом. Это означает, что фактические данные отсутствуют по различным причинам, а приведенные значения являются расчетными модельными данными для данного пункта наблюдений.
Смотрите также архив погоды в соседних городах и на ближайших метеорологических станциях:
Партнеры нашего сайта:      
Пояснения к столбцам:
  • Ветер - указаны скорость ветра в м/с - средняя за 10 мин, порывы в срок и между сроками (в фигурных скобках) и направление, откуда дует ветер: С - северный,
  • СВ - северо-восточный, В - восточный, ЮВ - юго-восточный, Ю - южный, ЮЗ - юго-западный, З - западный, СЗ - северо-западный.
  • Видимость - горизонтальная дальность видимости в метрах или километрах. При видимости от 1 до 10 км при отсутствии осадков обычно наблюдается дымка, при ухудшении видимости до 1 км и менее - туман. В сухую погоду видимость может ухудшаться дымом, пылью или мглою.
  • Явления - указаны атмосферные явления, наблюдавшиеся в срок или в последний час перед сроком; фигурными скобками обозначены явления, наблюдавшиеся между сроками (за 1-3 часа до срока); квадратными скобками обозначены град или гололедные отложения с указанием их диаметра в мм.
  • Облачность - указаны через наклонную черту общая и нижняя облачность в баллах и высота нижней границы облаков в метрах; квадратными скобками обозначены формы облаков: Ci - перистые, Cs - перисто-слоистые, Cc - перисто-кучевые, Ac - высококучевые, As - высокослоистые, Sc - слоисто-кучевые, Ns - слоисто-дождевые, Cu - кучевые, Cb - кучево-дождевые. Подробнее классификацию облаков см. в Атласе облаков (PDF).
  • T - Температура воздуха - температура, измеренная на высоте 2 м над землей.
  • Td - Температура точки росы - температура, при понижении до которой содержащийся в воздухе водяной пар достигнет насыщения.
  • f - Относительная влажность воздуха - влажноcть воздуха, измеренная на высоте 2 м над землей.
  • Te - Эффективная температура - температура, которую ощущает одетый по сезону человек в тени. Характеристика душности погоды. При расчете учитывается влияние влажности воздуха и скорости ветра на теплоощущения человека.
  • Tes - Эффективная температура на солнце - температура, которую ощущает человек, с поправкой на солнечный нагрев. Характеристика знойности погоды. Зависит от высоты солнца над горизонтом, облачности и скорости ветра. Ночью, в пасмурную погоду, а также при ветре 12 м/с и более поправка равна нулю.
  • P - Атмосферное давление - приведенное к уровню моря атмосферное давление.
  • Po - Атмосферное давление - измеренное на уровне метеостанции атмосферное давление.
  • Tmin - Минимальная температура - минимум температуры воздуха на высоте 2 м над землей.
  • Tmax - Максимальная температура - максимум температуры воздуха на высоте 2 м над землей.
  • R - Количество осадков - Количество выпавших осадков за период времени, мм. При наведении курсора мыши на число - период времени, за который выпало указанное количество осадков.
  • R24 - Количество осадков - Количество выпавших осадков за 24 часа, мм.
  • S - Снежный покров - Высота снежного покрова, см. При наведении курсора мыши на число - состояние снежного покрова и степень покрытия местности в баллах.